GW5567 Weather Reports


time (UTC)temp
C
wind
direction
speed
KPH
gust
KPH
rain 1hr
cm
rain 24hr
cm
rain mn
cm
humidity
%
barometer
mb
20260509173058 19 41 3.2 11.3 0.00 0.00 0.00 50 1019.4
20260509171556 18 180 6.4 14.5 0.00 0.00 0.00 48 1019.6
20260509170100 18 247 8.0 14.5 0.00 0.00 0.00 50 1019.9
20260509164554 18 191 6.4 16.1 0.00 0.00 0.00 51 1020.1
20260509163109 18 218 6.4 16.1 0.00 0.00 0.00 52 1020.2
20260509161601 17 182 6.4 12.9 0.00 0.00 0.00 53 1020.1
20260509160100 17 173 8.0 16.1 0.00 0.00 0.00 54 1020.1
20260509154555 17 215 4.8 14.5 0.00 0.00 0.00 54 1019.9
20260509153059 16 163 4.8 19.3 0.00 0.00 0.00 55 1019.8
20260509151557 16 192 8.0 17.7 0.00 0.00 0.00 56 1019.7
20260509150056 16 175 9.7 16.1 0.00 0.00 0.00 57 1019.8
20260509144558 15 136 4.8 16.1 0.00 0.00 0.00 60 1019.6
20260509143058 14 169 4.8 12.9 0.00 0.00 0.00 63 1019.5
20260509141608 13 157 3.2 14.5 0.00 0.00 0.00 64 1019.6
20260509134553 12 153 1.6 8.0 0.00 0.00 0.00 70 1019.6
20260509133052 11 191 0.0 6.4 0.00 0.00 0.00 71 1019.8
20260509131555 11 190 3.2 6.4 0.00 0.00 0.00 70 1019.7
20260509130059 11 191 0.0 4.8 0.00 0.00 0.00 69 1019.8
20260509124600 11 192 3.2 9.7 0.00 0.00 0.00 69 1019.7
20260509123101 11 194 1.6 6.4 0.00 0.00 0.00 72 1019.8
20260509121555 10 280 3.2 9.7 0.00 0.00 0.00 75 1019.5
20260509120058 10 29 1.6 6.4 0.00 0.00 0.00 75 1019.5
20260509114556 10 28 1.6 4.8 0.00 0.00 0.00 74 1019.5
20260509113118 10 28 1.6 8.0 0.00 0.00 0.00 73 1019.5
20260509111600 10 61 1.6 11.3 0.00 0.00 0.00 72 1019.3
20260509110053 10 171 1.6 11.3 0.00 0.00 0.00 71 1019.3
20260509104559 10 179 1.6 9.7 0.00 0.00 0.00 72 1019.5
20260509103058 10 56 1.6 4.8 0.00 0.00 0.00 70 1019.5
20260509101555 11 56 0.0 8.0 0.00 0.00 0.00 70 1019.4
20260509100110 11 184 1.6 4.8 0.00 0.00 0.00 69 1019.2
20260509094555 11 184 1.6 4.8 0.00 0.00 0.00 67 1019.0
20260509093053 12 0 1.6 9.7 0.00 0.00 0.00 66 1018.9
20260509091605 12 175 3.2 8.0 0.00 0.00 0.00 67 1019.0
20260509090052 11 0 3.2 8.0 0.00 0.00 0.00 67 1018.8
20260509084555 12 22 3.2 8.0 0.00 0.00 0.00 66 1018.7
20260509083059 13 167 4.8 20.9 0.00 0.00 0.00 62 1018.5
20260509081603 13 186 11.3 25.7 0.00 0.00 0.00 61 1018.6
20260509080100 13 184 14.5 30.6 0.00 0.00 0.00 61 1018.4
20260509074555 13 173 9.7 22.5 0.00 0.00 0.00 62 1018.4
20260509073105 13 157 9.7 24.1 0.00 0.00 0.00 61 1018.2
20260509071554 13 195 12.9 27.4 0.00 0.00 0.00 61 1018.2
20260509070059 13 180 9.7 19.3 0.00 0.00 0.00 60 1018.0
20260509064554 14 156 6.4 19.3 0.00 0.00 0.00 58 1018.0
20260509063101 14 185 11.3 24.1 0.00 0.00 0.00 56 1017.8
20260509061608 15 198 12.9 24.1 0.00 0.00 0.00 55 1017.7
20260509060058 15 198 9.7 22.5 0.00 0.00 0.00 55 1017.6
20260509054602 15 168 9.7 22.5 0.00 0.00 0.00 52 1017.7
20260509053102 16 195 9.7 24.1 0.00 0.00 0.00 51 1017.3
20260509051601 16 190 14.5 29.0 0.00 0.00 0.00 49 1017.0
20260509050058 16 188 12.9 29.0 0.00 0.00 0.00 48 1016.8
20260509044559 16 186 12.9 24.1 0.00 0.00 0.00 47 1016.6
20260509043059 16 192 8.0 20.9 0.00 0.00 0.00 47 1016.2
20260509041555 16 0 0.0 4.8 0.00 0.00 0.00 46 1016.0
20260509040058 17 0 1.6 6.4 0.00 0.00 0.00 43 1016.1
20260509034602 18 113 1.6 12.9 0.00 0.00 0.00 40 1015.8
20260509033056 19 279 6.4 27.4 0.00 0.00 0.00 37 1015.5
20260509031556 19 205 11.3 29.0 0.00 0.00 0.00 36 1014.5
20260509030054 20 220 12.9 27.4 0.00 0.00 0.00 34 1014.4
20260509024552 20 240 12.9 27.4 0.00 0.00 0.00 33 1014.2
20260509023055 21 213 11.3 24.1 0.00 0.00 0.00 32 1014.1
20260509021555 22 232 9.7 24.1 0.00 0.00 0.00 30 1014.0
20260509020053 22 257 6.4 27.4 0.00 0.00 0.00 28 1013.9
20260509014554 22 255 12.9 27.4 0.00 0.00 0.00 26 1013.9
20260509013058 23 234 11.3 29.0 0.00 0.00 0.00 26 1014.0
20260509011555 23 226 11.3 29.0 0.00 0.00 0.00 26 1014.1
20260509010052 23 216 14.5 29.0 0.00 0.00 0.00 22 1014.0
20260509004553 23 230 9.7 27.4 0.00 0.00 0.00 22 1014.0
20260509003058 23 201 14.5 29.0 0.00 0.00 0.00 22 1014.0
20260509001553 23 225 14.5 27.4 0.00 0.00 0.00 21 1013.9
20260509000052 23 208 12.9 32.2 0.00 0.00 0.00 19 1013.8
20260508234557 23 237 12.9 33.8 0.00 0.00 0.00 19 1013.9
20260508233106 24 198 9.7 22.5 0.00 0.00 0.00 16 1014.1
20260508231633 23 171 12.9 27.4 0.00 0.00 0.00 14 1014.2
20260508224603 25 176 6.4 19.3 0.00 0.00 0.00 13 1014.0
20260508223054 25 192 11.3 22.5 0.00 0.00 0.00 11 1014.2
20260508221600 24 238 11.3 25.7 0.00 0.00 0.00 16 1014.1
20260508214634 23 237 11.3 33.8 0.00 0.00 0.00 25 1014.0
20260508213059 23 253 11.3 37.0 0.00 0.00 0.00 26 1014.2
20260508211556 23 225 8.0 24.1 0.00 0.00 0.00 27 1014.5
20260508210058 23 223 14.5 29.0 0.00 0.00 0.00 27 1014.3
20260508204556 23 234 9.7 20.9 0.00 0.00 0.00 31 1014.1
20260508203116 23 246 11.3 24.1 0.00 0.00 0.00 29 1014.0
20260508201559 23 185 11.3 24.1 0.00 0.00 0.00 32 1014.1
20260508200103 23 182 11.3 22.5 0.00 0.00 0.00 33 1014.2
20260508194556 22 210 8.0 14.5 0.00 0.00 0.00 33 1014.3
20260508193137 22 194 12.9 24.1 0.00 0.00 0.00 32 1014.5
20260508191603 21 178 9.7 19.3 0.00 0.00 0.00 35 1014.6
20260508190053 20 172 4.8 16.1 0.00 0.00 0.00 40 1014.9
20260508184553 20 213 9.7 19.3 0.00 0.00 0.00 39 1015.1
20260508183052 20 199 4.8 19.3 0.00 0.00 0.00 38 1015.2
20260508181556 20 214 6.4 17.7 0.00 0.00 0.00 39 1015.3
20260508180105 20 208 9.7 19.3 0.00 0.00 0.00 40 1015.6
20260508174610 19 191 8.0 22.5 0.00 0.00 0.00 42 1015.6